Flag Weather past 2 weeks in Clarksville, Tennessee, U.S.A.

Now
36 °F

Sunny.


Feels Like: 33 °F
Forecast: 38 / 60 °F
Wind: 3 mph from West

Location: Outlaw Field

Current Time: Oct 30, 2014 at 9:05:12 AM

Latest Report: Oct 30, 2014 at 7:52 AM


Visibility: 10 mi

Pressure: 30.18 "Hg

Humidity: 97%

Dew point: 35 °F

Location of ClarksvilleLocation

Historic Weather in Clarksville — Graph

°F

Clarksville temperature yesterday

Maximum temperature yesterday: 65 °F (at 12:52 PM)
Minimum temperature yesterday: 43 °F (at 6:52 AM)
Average temperature yesterday: 53 °F

Past Weeks' High & Low Weather Summary

 TemperatureHumidityPressure
High81 °F (Oct 26, 3:52 PM)100% (Oct 20, 4:52 AM)30.29 "Hg (Oct 20, 4:52 AM)
Low35 °F (Oct 30, 6:52 AM)37% (Oct 24, 1:52 PM)29.80 "Hg (Oct 15, 7:52 AM)
Average57 °F77%30.04 "Hg
* Reported Oct 15 7:52 AM — Oct 30 7:52 AM, Clarksville, Weather by CustomWeather, © 2014

Note: Actual official high and low records may vary slightly from our data, if they occured in-between our weather recording intervals... More about our weather records

Advertising

Clarksville weather history for previous 24 hours

 ConditionsComfort  
Time TempWeatherWind HumidityBarometerVisibility
7:52 AM
Oct 30
36 °FSunny.3 mph97%30.18 "Hg10 mi
6:52 AM35 °FClear.No wind96%30.17 "Hg10 mi
5:52 AM37 °FClear.No wind93%30.16 "Hg10 mi
4:52 AM37 °FClear.No wind96%30.16 "Hg10 mi
3:52 AM37 °FClear.No wind96%30.15 "Hg10 mi
2:52 AM38 °FClear.No wind93%30.14 "Hg10 mi
1:52 AM40 °FClear.No wind89%30.14 "Hg10 mi
12:52 AM42 °FClear.No wind85%30.15 "Hg10 mi
11:52 PM
Oct 29
43 °FClear.No wind82%30.15 "Hg10 mi
10:52 PM44 °FClear.No wind85%30.14 "Hg10 mi
9:52 PM46 °FClear.5 mph73%30.14 "Hg10 mi
8:52 PM49 °FClear.5 mph61%30.13 "Hg10 mi
7:52 PM51 °FClear.5 mph59%30.13 "Hg10 mi
6:52 PM53 °FClear.7 mph52%30.12 "Hg10 mi
5:52 PM59 °FSunny.8 mph38%30.11 "Hg10 mi
4:52 PM62 °FSunny.12 mph37%30.10 "Hg10 mi
3:52 PM65 °FScattered clouds.16 mph39%30.10 "Hg10 mi
2:52 PM65 °FScattered clouds.15 mph37%30.11 "Hg10 mi
1:52 PM64 °FSunny.12 mph45%30.11 "Hg10 mi
12:52 PM65 °FSunny.9 mph42%30.13 "Hg10 mi
11:52 AM61 °FSunny.5 mph60%30.15 "Hg10 mi
10:52 AM59 °FSunny.6 mph75%30.16 "Hg10 mi
9:52 AM53 °FSunny.5 mph93%30.16 "Hg10 mi
9:02 AM49 °FFog.No wind100%30.17 "Hg3 mi
Weather by CustomWeather, © 2014

See weather overviewHow to use our weather pages